| time (UTC) | temp F | wind direction | speed knots | gust knots | rain 1hr in | rain 24hr in | rain mn in | humidity % | barometer mb |
| 20260507155429 | 50 | 294 | 1.7 | 3.5 | 0.00 | 0.02 | 0.02 | 72 | 1014.1 |
| 20260507154929 | 50 | 273 | 2.6 | 5.2 | 0.00 | 0.02 | 0.02 | 71 | 1014.1 |
| 20260507154429 | 50 | 208 | 2.6 | 7.8 | 0.01 | 0.02 | 0.02 | 71 | 1014.1 |
| 20260507153929 | 51 | 256 | 1.7 | 5.2 | 0.01 | 0.02 | 0.02 | 72 | 1014.2 |
| 20260507153653 | 51 | 226 | 0.9 | 4.3 | 0.01 | 0.02 | 0.02 | 72 | 1014.0 |
| 20260507153429 | 51 | 226 | 0.9 | 4.3 | 0.01 | 0.02 | 0.02 | 72 | 1014.0 |
| 20260507153256 | 50 | 210 | 0.9 | 3.5 | 0.01 | 0.02 | 0.02 | 73 | 1014.0 |
| 20260507152929 | 50 | 210 | 0.9 | 3.5 | 0.01 | 0.02 | 0.02 | 73 | 1014.0 |
| 20260507152429 | 50 | 139 | 0.0 | 2.6 | 0.01 | 0.02 | 0.02 | 74 | 1013.9 |
| 20260507151929 | 49 | 221 | 0.0 | 1.7 | 0.01 | 0.02 | 0.02 | 73 | 1014.1 |
| 20260507151429 | 49 | 231 | 0.0 | 0.0 | 0.01 | 0.02 | 0.02 | 74 | 1014.0 |
| 20260507150929 | 49 | 255 | 0.0 | 0.0 | 0.01 | 0.02 | 0.02 | 76 | 1014.2 |
| 20260507150429 | 48 | 302 | 0.0 | 0.0 | 0.01 | 0.02 | 0.02 | 77 | 1014.5 |
| 20260507145929 | 48 | 304 | 0.0 | 0.0 | 0.01 | 0.02 | 0.02 | 77 | 1014.6 |
| 20260507145429 | 48 | 282 | 0.0 | 0.0 | 0.01 | 0.02 | 0.02 | 78 | 1014.8 |
| 20260507144929 | 47 | 284 | 0.0 | 0.0 | 0.02 | 0.02 | 0.02 | 76 | 1014.9 |
| 20260507144429 | 47 | 280 | 0.0 | 3.5 | 0.01 | 0.01 | 0.01 | 79 | 1014.9 |
| 20260507143930 | 46 | 238 | 0.9 | 0.0 | 0.01 | 0.01 | 0.01 | 79 | 1014.9 |
| 20260507143429 | 45 | 238 | 0.9 | 4.3 | 0.01 | 0.01 | 0.01 | 79 | 1014.9 |
| 20260507142929 | 45 | 259 | 0.9 | 5.2 | 0.01 | 0.01 | 0.01 | 79 | 1014.4 |
| 20260507142429 | 45 | 193 | 0.0 | 0.0 | 0.01 | 0.01 | 0.01 | 79 | 1014.1 |
| 20260507141930 | 45 | 113 | 0.0 | 0.0 | 0.01 | 0.01 | 0.01 | 78 | 1014.0 |
| 20260507141430 | 45 | 163 | 0.0 | 1.7 | 0.01 | 0.01 | 0.01 | 77 | 1014.2 |
| 20260507140930 | 45 | 226 | 0.0 | 3.5 | 0.01 | 0.01 | 0.01 | 76 | 1014.6 |
| 20260507140430 | 45 | 262 | 0.0 | 0.0 | 0.01 | 0.01 | 0.01 | 73 | 1014.9 |
| 20260507135930 | 45 | 104 | 0.0 | 0.0 | 0.01 | 0.01 | 0.01 | 71 | 1014.3 |
| 20260507135430 | 46 | 336 | 0.0 | 0.9 | 0.01 | 0.01 | 0.01 | 69 | 1014.8 |
| 20260507134930 | 46 | 307 | 0.0 | 0.0 | 0.00 | 0.00 | 0.00 | 66 | 1015.3 |
| 20260507134430 | 46 | 302 | 0.0 | 1.7 | 0.00 | 0.00 | 0.00 | 64 | 1015.0 |
| 20260507133930 | 46 | 301 | 0.0 | 1.7 | 0.00 | 0.00 | 0.00 | 64 | 1015.0 |
| 20260507133430 | 46 | 292 | 0.0 | 0.0 | 0.00 | 0.00 | 0.00 | 64 | 1014.5 |
| 20260507132930 | 46 | 292 | 0.0 | 0.0 | 0.00 | 0.00 | 0.00 | 64 | 1014.5 |
| 20260507132430 | 47 | 309 | 0.0 | 0.0 | 0.00 | 0.00 | 0.00 | 64 | 1014.5 |
| 20260507131930 | 47 | 310 | 0.0 | 0.0 | 0.00 | 0.00 | 0.00 | 64 | 1014.5 |
| 20260507131430 | 47 | 311 | 0.0 | 0.0 | 0.00 | 0.00 | 0.00 | 65 | 1014.2 |
| 20260507130930 | 47 | 312 | 0.0 | 2.6 | 0.00 | 0.00 | 0.00 | 65 | 1014.3 |
| 20260507130430 | 47 | 310 | 0.0 | 2.6 | 0.00 | 0.00 | 0.00 | 65 | 1014.3 |
| 20260507125930 | 47 | 303 | 0.0 | 4.3 | 0.00 | 0.00 | 0.00 | 65 | 1014.3 |
| 20260507125430 | 47 | 276 | 0.9 | 2.6 | 0.00 | 0.00 | 0.00 | 64 | 1014.0 |
| 20260507124930 | 47 | 343 | 1.7 | 5.2 | 0.00 | 0.00 | 0.00 | 65 | 1014.2 |
| 20260507124430 | 47 | 293 | 2.6 | 5.2 | 0.00 | 0.00 | 0.00 | 65 | 1013.8 |
| 20260507123930 | 46 | 257 | 3.5 | 7.8 | 0.00 | 0.00 | 0.00 | 65 | 1013.7 |
| 20260507123430 | 46 | 255 | 3.5 | 7.0 | 0.00 | 0.00 | 0.00 | 65 | 1013.5 |
| 20260507122930 | 46 | 226 | 3.5 | 7.0 | 0.00 | 0.00 | 0.00 | 65 | 1013.5 |
| 20260507122430 | 45 | 239 | 2.6 | 7.8 | 0.00 | 0.00 | 0.00 | 64 | 1013.4 |
| 20260507121930 | 45 | 241 | 1.7 | 7.0 | 0.00 | 0.00 | 0.00 | 63 | 1013.4 |
| 20260507121430 | 45 | 160 | 1.7 | 5.2 | 0.00 | 0.00 | 0.00 | 64 | 1013.3 |
| 20260507120930 | 44 | 210 | 1.7 | 4.3 | 0.00 | 0.00 | 0.00 | 64 | 1013.4 |
| 20260507120430 | 44 | 159 | 1.7 | 4.3 | 0.00 | 0.00 | 0.00 | 64 | 1013.3 |
| 20260507115930 | 44 | 217 | 1.7 | 5.2 | 0.00 | 0.00 | 0.00 | 64 | 1013.3 |
| 20260507115430 | 43 | 245 | 0.9 | 4.3 | 0.00 | 0.00 | 0.00 | 64 | 1013.3 |
| 20260507114930 | 43 | 165 | 0.9 | 4.3 | 0.00 | 0.00 | 0.00 | 64 | 1013.3 |
| 20260507114430 | 43 | 216 | 0.9 | 1.7 | 0.00 | 0.00 | 0.00 | 64 | 1013.3 |
| 20260507113930 | 43 | 226 | 1.7 | 4.3 | 0.00 | 0.00 | 0.00 | 63 | 1013.3 |
| 20260507113430 | 43 | 215 | 2.6 | 5.2 | 0.00 | 0.00 | 0.00 | 63 | 1013.3 |
| 20260507112930 | 43 | 212 | 2.6 | 6.1 | 0.00 | 0.00 | 0.00 | 62 | 1013.4 |
| 20260507112430 | 43 | 163 | 1.7 | 5.2 | 0.00 | 0.00 | 0.00 | 62 | 1013.4 |
| 20260507111930 | 43 | 221 | 1.7 | 4.3 | 0.00 | 0.00 | 0.00 | 62 | 1013.4 |
| 20260507111430 | 43 | 140 | 0.9 | 3.5 | 0.00 | 0.00 | 0.00 | 62 | 1013.5 |
| 20260507110930 | 43 | 149 | 0.9 | 3.5 | 0.00 | 0.00 | 0.00 | 61 | 1013.5 |
| 20260507110430 | 43 | 143 | 0.9 | 3.5 | 0.00 | 0.00 | 0.00 | 61 | 1013.5 |
| 20260507105930 | 43 | 170 | 0.0 | 0.9 | 0.00 | 0.00 | 0.00 | 61 | 1013.5 |
| 20260507105430 | 43 | 123 | 0.0 | 0.0 | 0.00 | 0.00 | 0.00 | 61 | 1013.6 |
| 20260507104930 | 43 | 166 | 0.0 | 0.0 | 0.00 | 0.00 | 0.00 | 61 | 1013.6 |
| 20260507104430 | 43 | 138 | 0.0 | 0.0 | 0.00 | 0.00 | 0.00 | 61 | 1013.7 |
| 20260507103930 | 43 | 114 | 0.0 | 0.0 | 0.00 | 0.00 | 0.00 | 61 | 1013.8 |
| 20260507103431 | 43 | 145 | 0.0 | 0.0 | 0.00 | 0.00 | 0.00 | 61 | 1013.9 |
| 20260507102930 | 43 | 143 | 0.0 | 0.0 | 0.00 | 0.00 | 0.00 | 61 | 1014.0 |
| 20260507102431 | 43 | 139 | 0.0 | 0.0 | 0.00 | 0.00 | 0.00 | 62 | 1014.1 |
| 20260507101931 | 43 | 139 | 0.0 | 0.0 | 0.00 | 0.00 | 0.00 | 62 | 1014.3 |
| 20260507101431 | 43 | 135 | 0.0 | 0.0 | 0.00 | 0.00 | 0.00 | 62 | 1014.5 |
| 20260507100931 | 43 | 134 | 0.0 | 0.9 | 0.00 | 0.00 | 0.00 | 62 | 1014.6 |
| 20260507100431 | 43 | 205 | 0.0 | 2.6 | 0.00 | 0.00 | 0.00 | 62 | 1014.6 |
| 20260507095931 | 43 | 150 | 0.0 | 0.0 | 0.00 | 0.00 | 0.00 | 62 | 1014.7 |
| 20260507095431 | 43 | 191 | 0.9 | 1.7 | 0.00 | 0.00 | 0.00 | 62 | 1014.7 |
| 20260507094931 | 43 | 214 | 0.9 | 1.7 | 0.00 | 0.00 | 0.00 | 62 | 1014.7 |
| 20260507094431 | 43 | 242 | 0.9 | 3.5 | 0.00 | 0.00 | 0.00 | 62 | 1014.7 |
| 20260507093931 | 42 | 198 | 0.0 | 4.3 | 0.00 | 0.00 | 0.00 | 62 | 1014.9 |
| 20260507093431 | 42 | 200 | 0.0 | 0.9 | 0.00 | 0.00 | 0.00 | 60 | 1014.7 |
| 20260507092931 | 42 | 159 | 0.0 | 0.9 | 0.00 | 0.00 | 0.00 | 60 | 1014.7 |
| 20260507092431 | 42 | 141 | 0.0 | 1.7 | 0.00 | 0.00 | 0.00 | 61 | 1014.8 |
| 20260507091931 | 42 | 136 | 0.0 | 0.0 | 0.00 | 0.00 | 0.00 | 61 | 1014.8 |
| 20260507091431 | 42 | 248 | 0.0 | 0.0 | 0.00 | 0.00 | 0.00 | 61 | 1014.9 |
| 20260507090931 | 42 | 148 | 0.0 | 0.9 | 0.00 | 0.00 | 0.00 | 61 | 1015.0 |
| 20260507090431 | 42 | 205 | 0.0 | 0.9 | 0.00 | 0.00 | 0.00 | 62 | 1015.1 |
| 20260507085931 | 41 | 214 | 0.0 | 0.9 | 0.00 | 0.00 | 0.00 | 62 | 1015.2 |
| 20260507085431 | 41 | 139 | 0.0 | 0.9 | 0.00 | 0.00 | 0.00 | 62 | 1015.1 |
| 20260507084931 | 41 | 146 | 0.0 | 0.0 | 0.00 | 0.00 | 0.00 | 62 | 1015.2 |
| 20260507084431 | 41 | 149 | 0.0 | 0.9 | 0.00 | 0.00 | 0.00 | 62 | 1015.2 |
| 20260507083931 | 41 | 155 | 0.0 | 0.0 | 0.00 | 0.00 | 0.00 | 62 | 1015.2 |
| 20260507083431 | 41 | 146 | 0.0 | 0.9 | 0.00 | 0.00 | 0.00 | 62 | 1015.2 |
| 20260507082931 | 41 | 233 | 0.0 | 0.0 | 0.00 | 0.00 | 0.00 | 62 | 1015.3 |
| 20260507082431 | 41 | 152 | 0.0 | 0.0 | 0.00 | 0.00 | 0.00 | 62 | 1015.3 |
| 20260507081931 | 41 | 146 | 0.0 | 0.0 | 0.00 | 0.00 | 0.00 | 62 | 1015.4 |
| 20260507081431 | 41 | 200 | 0.0 | 0.0 | 0.00 | 0.00 | 0.00 | 63 | 1015.4 |
| 20260507080931 | 41 | 201 | 0.0 | 0.0 | 0.00 | 0.00 | 0.00 | 62 | 1015.3 |
| 20260507080432 | 41 | 194 | 0.0 | 0.0 | 0.00 | 0.00 | 0.00 | 62 | 1015.4 |
| 20260507075931 | 41 | 229 | 0.0 | 0.0 | 0.00 | 0.00 | 0.00 | 63 | 1015.4 |
| 20260507075431 | 41 | 150 | 0.0 | 0.0 | 0.00 | 0.00 | 0.00 | 63 | 1015.4 |
| 20260507074931 | 41 | 136 | 0.0 | 0.0 | 0.00 | 0.00 | 0.00 | 62 | 1015.5 |
| 20260507074431 | 41 | 139 | 0.0 | 0.0 | 0.00 | 0.00 | 0.00 | 62 | 1015.5 |
| 20260507073931 | 41 | 150 | 0.0 | 0.0 | 0.00 | 0.00 | 0.00 | 62 | 1015.6 |
| 20260507073431 | 41 | 148 | 0.0 | 0.0 | 0.00 | 0.00 | 0.00 | 62 | 1015.7 |
| 20260507072931 | 41 | 215 | 0.0 | 0.0 | 0.00 | 0.00 | 0.00 | 63 | 1015.7 |
| 20260507072431 | 41 | 141 | 0.0 | 0.0 | 0.00 | 0.00 | 0.00 | 62 | 1015.7 |
| 20260507071931 | 41 | 196 | 0.0 | 0.0 | 0.00 | 0.00 | 0.00 | 63 | 1015.7 |
| 20260507071431 | 41 | 150 | 0.0 | 0.0 | 0.00 | 0.00 | 0.00 | 63 | 1015.8 |
| 20260507070931 | 41 | 144 | 0.0 | 0.0 | 0.00 | 0.00 | 0.00 | 63 | 1015.9 |
| 20260507070431 | 41 | 131 | 0.0 | 0.9 | 0.00 | 0.00 | 0.00 | 64 | 1016.0 |
| 20260507065931 | 41 | 205 | 0.0 | 2.6 | 0.00 | 0.00 | 0.00 | 64 | 1016.0 |
| 20260507065431 | 41 | 203 | 0.0 | 0.0 | 0.00 | 0.00 | 0.00 | 64 | 1016.1 |
| 20260507064931 | 41 | 141 | 0.0 | 0.0 | 0.00 | 0.00 | 0.00 | 63 | 1016.1 |
| 20260507064432 | 42 | 144 | 0.0 | 0.0 | 0.00 | 0.00 | 0.00 | 63 | 1016.1 |
| 20260507063932 | 42 | 160 | 0.0 | 0.0 | 0.00 | 0.00 | 0.00 | 63 | 1016.1 |
| 20260507063432 | 42 | 146 | 0.0 | 1.7 | 0.00 | 0.00 | 0.00 | 62 | 1016.1 |
| 20260507062932 | 42 | 221 | 0.0 | 1.7 | 0.00 | 0.00 | 0.00 | 62 | 1016.1 |
| 20260507062432 | 42 | 184 | 0.0 | 0.9 | 0.00 | 0.00 | 0.00 | 62 | 1016.1 |
| 20260507061932 | 42 | 143 | 0.0 | 0.0 | 0.00 | 0.00 | 0.00 | 61 | 1016.2 |
| 20260507061432 | 42 | 185 | 0.0 | 0.0 | 0.00 | 0.00 | 0.00 | 62 | 1016.3 |
| 20260507060932 | 42 | 148 | 0.0 | 0.9 | 0.00 | 0.00 | 0.00 | 62 | 1016.3 |
| 20260507060432 | 42 | 145 | 0.0 | 0.9 | 0.00 | 0.00 | 0.00 | 62 | 1016.3 |
| 20260507055932 | 42 | 150 | 0.0 | 0.0 | 0.00 | 0.00 | 0.00 | 62 | 1016.4 |
| 20260507055432 | 42 | 150 | 0.0 | 0.0 | 0.00 | 0.00 | 0.00 | 62 | 1016.4 |
| 20260507054932 | 42 | 158 | 0.0 | 0.0 | 0.00 | 0.00 | 0.00 | 62 | 1016.4 |
| 20260507054432 | 42 | 138 | 0.0 | 0.0 | 0.00 | 0.00 | 0.00 | 62 | 1016.4 |
| 20260507053932 | 42 | 161 | 0.0 | 0.0 | 0.00 | 0.00 | 0.00 | 63 | 1016.5 |
| 20260507053432 | 42 | 155 | 0.0 | 0.0 | 0.00 | 0.00 | 0.00 | 63 | 1016.5 |
| 20260507052932 | 42 | 152 | 0.0 | 0.0 | 0.00 | 0.00 | 0.00 | 64 | 1016.6 |
| 20260507052432 | 41 | 159 | 0.0 | 0.0 | 0.00 | 0.00 | 0.00 | 65 | 1016.6 |
| 20260507051932 | 41 | 159 | 0.0 | 0.0 | 0.00 | 0.00 | 0.00 | 66 | 1016.6 |
| 20260507051432 | 41 | 161 | 0.0 | 0.0 | 0.00 | 0.00 | 0.00 | 67 | 1016.6 |
| 20260507050932 | 41 | 160 | 0.0 | 0.0 | 0.00 | 0.00 | 0.00 | 66 | 1016.6 |
| 20260507050432 | 41 | 165 | 0.0 | 0.0 | 0.00 | 0.00 | 0.00 | 67 | 1016.6 |
| 20260507045932 | 40 | 172 | 0.0 | 0.0 | 0.00 | 0.00 | 0.00 | 69 | 1016.6 |
| 20260507045432 | 40 | 149 | 0.0 | 0.0 | 0.00 | 0.00 | 0.00 | 71 | 1016.7 |
| 20260507044932 | 39 | 155 | 0.0 | 0.0 | 0.00 | 0.00 | 0.00 | 74 | 1016.7 |
| 20260507044432 | 38 | 155 | 0.0 | 0.0 | 0.00 | 0.00 | 0.00 | 75 | 1016.6 |
| 20260507043932 | 38 | 155 | 0.0 | 0.0 | 0.00 | 0.00 | 0.00 | 76 | 1016.7 |
| 20260507043432 | 37 | 298 | 0.0 | 0.0 | 0.00 | 0.00 | 0.00 | 75 | 1016.8 |
| 20260507042932 | 37 | 298 | 0.0 | 0.0 | 0.00 | 0.00 | 0.00 | 75 | 1016.8 |
| 20260507042432 | 38 | 298 | 0.0 | 0.0 | 0.00 | 0.00 | 0.00 | 75 | 1016.8 |
| 20260507041932 | 38 | 298 | 0.0 | 0.0 | 0.00 | 0.00 | 0.00 | 75 | 1016.8 |
| 20260507041432 | 38 | 298 | 0.0 | 0.0 | 0.00 | 0.00 | 0.00 | 75 | 1016.8 |
| 20260507040932 | 38 | 298 | 0.0 | 0.0 | 0.00 | 0.00 | 0.00 | 76 | 1016.9 |
| 20260507040432 | 38 | 298 | 0.0 | 0.0 | 0.00 | 0.00 | 0.00 | 76 | 1016.8 |
| 20260507035932 | 38 | 298 | 0.0 | 0.0 | 0.00 | 0.00 | 0.00 | 75 | 1016.8 |
| 20260507035432 | 38 | 298 | 0.0 | 0.0 | 0.00 | 0.00 | 0.00 | 74 | 1016.9 |
| 20260507034932 | 38 | 298 | 0.0 | 0.0 | 0.00 | 0.00 | 0.00 | 73 | 1016.9 |
| 20260507034432 | 38 | 297 | 0.0 | 0.0 | 0.00 | 0.00 | 0.00 | 73 | 1016.9 |
| 20260507033932 | 38 | 298 | 0.0 | 0.0 | 0.00 | 0.00 | 0.00 | 72 | 1017.0 |
| 20260507033432 | 38 | 298 | 0.0 | 0.0 | 0.00 | 0.00 | 0.00 | 71 | 1016.9 |
| 20260507032932 | 39 | 298 | 0.0 | 0.0 | 0.00 | 0.00 | 0.00 | 71 | 1017.0 |
| 20260507032432 | 39 | 298 | 0.0 | 0.0 | 0.00 | 0.00 | 0.00 | 70 | 1017.0 |
| 20260507031932 | 39 | 296 | 0.0 | 0.0 | 0.00 | 0.00 | 0.00 | 70 | 1017.1 |
| 20260507031432 | 39 | 296 | 0.0 | 0.0 | 0.00 | 0.00 | 0.00 | 69 | 1017.1 |
| 20260507030932 | 40 | 296 | 0.0 | 0.0 | 0.00 | 0.00 | 0.00 | 67 | 1017.0 |
| 20260507030432 | 40 | 297 | 0.0 | 0.0 | 0.00 | 0.00 | 0.00 | 66 | 1017.0 |
| 20260507025933 | 41 | 298 | 0.0 | 0.0 | 0.00 | 0.00 | 0.00 | 65 | 1017.0 |
| 20260507025433 | 41 | 298 | 0.0 | 0.0 | 0.00 | 0.00 | 0.00 | 65 | 1017.0 |
| 20260507024933 | 41 | 297 | 0.0 | 0.0 | 0.00 | 0.00 | 0.00 | 63 | 1017.0 |
| 20260507024433 | 42 | 297 | 0.0 | 0.0 | 0.00 | 0.00 | 0.00 | 60 | 1016.9 |
| 20260507023933 | 42 | 296 | 0.0 | 0.0 | 0.00 | 0.00 | 0.00 | 59 | 1016.9 |
| 20260507023433 | 43 | 296 | 0.0 | 0.0 | 0.00 | 0.00 | 0.00 | 57 | 1016.9 |
| 20260507022933 | 43 | 297 | 0.0 | 0.0 | 0.00 | 0.00 | 0.00 | 56 | 1016.9 |
| 20260507022433 | 44 | 296 | 0.0 | 0.0 | 0.00 | 0.00 | 0.00 | 55 | 1017.0 |
| 20260507021933 | 45 | 297 | 0.0 | 0.0 | 0.00 | 0.00 | 0.00 | 54 | 1016.9 |
| 20260507021433 | 45 | 296 | 0.0 | 0.0 | 0.00 | 0.00 | 0.00 | 53 | 1016.9 |
| 20260507020933 | 46 | 298 | 0.0 | 0.0 | 0.00 | 0.00 | 0.00 | 48 | 1016.8 |
| 20260507020433 | 46 | 298 | 0.0 | 0.0 | 0.00 | 0.00 | 0.00 | 47 | 1016.8 |
| 20260507015933 | 47 | 297 | 0.0 | 0.0 | 0.00 | 0.00 | 0.00 | 44 | 1016.8 |
| 20260507015433 | 48 | 298 | 0.0 | 0.0 | 0.00 | 0.00 | 0.00 | 43 | 1016.8 |
| 20260507014933 | 48 | 298 | 0.0 | 0.0 | 0.00 | 0.00 | 0.00 | 43 | 1016.7 |
| 20260507014433 | 49 | 298 | 0.0 | 0.0 | 0.00 | 0.00 | 0.00 | 41 | 1016.7 |
| 20260507013933 | 50 | 298 | 0.0 | 0.0 | 0.00 | 0.00 | 0.00 | 41 | 1016.7 |
| 20260507013433 | 50 | 298 | 0.0 | 0.0 | 0.00 | 0.00 | 0.00 | 39 | 1016.7 |
| 20260507012933 | 50 | 298 | 0.0 | 0.0 | 0.00 | 0.00 | 0.00 | 38 | 1016.6 |
| 20260507012433 | 51 | 297 | 0.0 | 0.0 | 0.00 | 0.00 | 0.00 | 37 | 1016.6 |
| 20260507011933 | 51 | 298 | 0.0 | 0.0 | 0.00 | 0.00 | 0.00 | 36 | 1016.6 |
| 20260507011433 | 52 | 298 | 0.0 | 0.0 | 0.00 | 0.00 | 0.00 | 36 | 1016.6 |
| 20260507010933 | 52 | 298 | 0.0 | 0.0 | 0.00 | 0.00 | 0.00 | 35 | 1016.5 |
| 20260507010433 | 53 | 298 | 0.0 | 1.7 | 0.00 | 0.00 | 0.00 | 34 | 1016.6 |
| 20260507005933 | 53 | 304 | 0.0 | 3.5 | 0.00 | 0.00 | 0.00 | 34 | 1016.6 |
| 20260507005433 | 53 | 304 | 0.9 | 2.6 | 0.00 | 0.00 | 0.00 | 33 | 1016.5 |
| 20260507004933 | 54 | 283 | 0.9 | 4.3 | 0.00 | 0.00 | 0.00 | 33 | 1016.6 |
| 20260507004433 | 54 | 300 | 1.7 | 4.3 | 0.00 | 0.00 | 0.00 | 33 | 1016.6 |
| 20260507003933 | 55 | 300 | 1.7 | 5.2 | 0.00 | 0.00 | 0.00 | 32 | 1016.7 |
| 20260507003433 | 55 | 285 | 0.9 | 3.5 | 0.00 | 0.00 | 0.00 | 32 | 1016.7 |
| 20260507002933 | 56 | 304 | 0.9 | 4.3 | 0.00 | 0.00 | 0.00 | 32 | 1016.6 |
| 20260507002433 | 56 | 307 | 0.9 | 3.5 | 0.00 | 0.00 | 0.00 | 32 | 1016.6 |
| 20260507001933 | 56 | 307 | 0.9 | 4.3 | 0.00 | 0.00 | 0.00 | 31 | 1016.6 |
| 20260507001433 | 56 | 297 | 2.6 | 4.3 | 0.00 | 0.00 | 0.00 | 32 | 1016.6 |
| 20260507000933 | 56 | 293 | 4.3 | 5.2 | 0.00 | 0.00 | 0.00 | 31 | 1016.6 |
| 20260507000435 | 56 | 297 | 3.5 | 10.4 | 0.00 | 0.00 | 0.00 | 30 | 1016.6 |
| 20260506235933 | 56 | 307 | 2.6 | 3.5 | 0.00 | 0.00 | 0.00 | 30 | 1016.6 |
| 20260506235433 | 56 | 333 | 2.6 | 3.5 | 0.00 | 0.00 | 0.00 | 30 | 1016.6 |
| 20260506234933 | 56 | 298 | 3.5 | 3.5 | 0.00 | 0.00 | 0.00 | 31 | 1016.6 |
| 20260506234433 | 56 | 298 | 3.5 | 7.0 | 0.00 | 0.00 | 0.00 | 31 | 1016.7 |
| 20260506233933 | 56 | 323 | 3.5 | 7.8 | 0.00 | 0.00 | 0.00 | 31 | 1016.6 |
| 20260506233433 | 56 | 286 | 4.3 | 9.6 | 0.00 | 0.00 | 0.00 | 30 | 1016.9 |
| 20260506232933 | 56 | 281 | 3.5 | 10.4 | 0.00 | 0.00 | 0.00 | 30 | 1016.9 |
| 20260506232433 | 57 | 293 | 3.5 | 7.0 | 0.00 | 0.00 | 0.00 | 32 | 1016.9 |
| 20260506231933 | 57 | 302 | 2.6 | 9.6 | 0.00 | 0.00 | 0.00 | 30 | 1017.0 |
| 20260506231433 | 57 | 308 | 1.7 | 5.2 | 0.00 | 0.00 | 0.00 | 32 | 1016.9 |
| 20260506230933 | 57 | 358 | 2.6 | 7.0 | 0.00 | 0.00 | 0.00 | 30 | 1016.9 |
| 20260506230434 | 56 | 315 | 4.3 | 8.7 | 0.00 | 0.00 | 0.00 | 32 | 1017.0 |
| 20260506225934 | 56 | 300 | 5.2 | 11.3 | 0.00 | 0.00 | 0.00 | 30 | 1017.2 |
| 20260506225434 | 56 | 301 | 5.2 | 12.2 | 0.00 | 0.00 | 0.00 | 30 | 1017.1 |
| 20260506224934 | 57 | 305 | 5.2 | 14.8 | 0.00 | 0.00 | 0.00 | 29 | 1017.1 |
| 20260506224434 | 57 | 307 | 4.3 | 8.7 | 0.00 | 0.00 | 0.00 | 31 | 1017.1 |
| 20260506223934 | 57 | 297 | 3.5 | 9.6 | 0.00 | 0.00 | 0.00 | 29 | 1017.1 |
| 20260506223434 | 56 | 300 | 3.5 | 7.8 | 0.00 | 0.00 | 0.00 | 31 | 1016.9 |
| 20260506222934 | 56 | 298 | 5.2 | 10.4 | 0.00 | 0.00 | 0.00 | 30 | 1016.9 |
| 20260506222434 | 56 | 298 | 6.1 | 10.4 | 0.00 | 0.00 | 0.00 | 30 | 1017.0 |
| 20260506221934 | 56 | 277 | 5.2 | 11.3 | 0.00 | 0.00 | 0.00 | 30 | 1017.0 |
| 20260506221434 | 56 | 300 | 3.5 | 8.7 | 0.00 | 0.00 | 0.00 | 31 | 1017.0 |
| 20260506220934 | 56 | 59 | 2.6 | 7.0 | 0.00 | 0.00 | 0.00 | 32 | 1016.9 |
| 20260506220434 | 55 | 339 | 2.6 | 7.0 | 0.00 | 0.00 | 0.00 | 31 | 1017.0 |
| 20260506215934 | 55 | 350 | 1.7 | 5.2 | 0.00 | 0.00 | 0.00 | 32 | 1016.9 |
| 20260506215434 | 55 | 328 | 1.7 | 7.0 | 0.00 | 0.00 | 0.00 | 33 | 1017.0 |
| 20260506214934 | 55 | 312 | 2.6 | 5.2 | 0.00 | 0.00 | 0.00 | 34 | 1017.0 |
| 20260506214434 | 55 | 311 | 2.6 | 7.8 | 0.00 | 0.00 | 0.00 | 32 | 1017.1 |
| 20260506213934 | 55 | 316 | 1.7 | 5.2 | 0.00 | 0.00 | 0.00 | 34 | 1017.0 |
| 20260506213434 | 54 | 288 | 2.6 | 7.8 | 0.00 | 0.00 | 0.00 | 34 | 1017.1 |
| 20260506212934 | 55 | 321 | 2.6 | 7.8 | 0.00 | 0.00 | 0.00 | 34 | 1017.2 |
| 20260506212434 | 55 | 316 | 1.7 | 7.8 | 0.00 | 0.00 | 0.00 | 34 | 1017.3 |
| 20260506211934 | 55 | 302 | 0.9 | 4.3 | 0.00 | 0.00 | 0.00 | 34 | 1017.3 |
| 20260506211434 | 55 | 311 | 0.9 | 3.5 | 0.00 | 0.00 | 0.00 | 33 | 1017.4 |
| 20260506210934 | 55 | 325 | 0.9 | 5.2 | 0.00 | 0.00 | 0.00 | 34 | 1017.4 |
| 20260506210434 | 55 | 300 | 1.7 | 5.2 | 0.00 | 0.00 | 0.00 | 34 | 1017.4 |
| 20260506205934 | 55 | 302 | 2.6 | 5.2 | 0.00 | 0.00 | 0.00 | 34 | 1017.5 |
| 20260506205434 | 55 | 255 | 4.3 | 7.8 | 0.00 | 0.00 | 0.00 | 33 | 1017.5 |
| 20260506204934 | 55 | 328 | 5.2 | 12.2 | 0.00 | 0.00 | 0.00 | 33 | 1017.5 |
| 20260506204434 | 55 | 293 | 4.3 | 10.4 | 0.00 | 0.00 | 0.00 | 34 | 1017.5 |
| 20260506203934 | 55 | 302 | 5.2 | 9.6 | 0.00 | 0.00 | 0.00 | 32 | 1017.7 |
| 20260506203434 | 55 | 274 | 4.3 | 11.3 | 0.00 | 0.00 | 0.00 | 36 | 1017.6 |
| 20260506202934 | 55 | 328 | 2.6 | 6.1 | 0.00 | 0.00 | 0.00 | 35 | 1017.7 |
| 20260506202434 | 54 | 328 | 2.6 | 3.5 | 0.00 | 0.00 | 0.00 | 37 | 1017.7 |
| 20260506201934 | 53 | 308 | 4.3 | 5.2 | 0.00 | 0.00 | 0.00 | 36 | 1017.7 |
| 20260506201434 | 54 | 300 | 5.2 | 6.1 | 0.00 | 0.00 | 0.00 | 35 | 1017.8 |
| 20260506200934 | 54 | 316 | 4.3 | 6.1 | 0.00 | 0.00 | 0.00 | 36 | 1018.0 |
| 20260506200434 | 54 | 293 | 5.2 | 5.2 | 0.00 | 0.00 | 0.00 | 35 | 1017.9 |
| 20260506195934 | 55 | 291 | 4.3 | 12.2 | 0.00 | 0.00 | 0.00 | 37 | 1018.0 |
| 20260506195434 | 54 | 300 | 2.6 | 13.9 | 0.00 | 0.00 | 0.00 | 33 | 1018.0 |
| 20260506194934 | 54 | 300 | 2.6 | 7.0 | 0.00 | 0.00 | 0.00 | 40 | 1018.0 |
| 20260506194434 | 54 | 281 | 3.5 | 7.0 | 0.00 | 0.00 | 0.00 | 36 | 1018.1 |
| 20260506193934 | 53 | 288 | 3.5 | 10.4 | 0.00 | 0.00 | 0.00 | 40 | 1018.1 |
| 20260506193434 | 53 | 305 | 4.3 | 11.3 | 0.00 | 0.00 | 0.00 | 37 | 1018.1 |
| 20260506192934 | 53 | 303 | 4.3 | 12.2 | 0.00 | 0.00 | 0.00 | 36 | 1018.1 |
| 20260506192434 | 54 | 246 | 3.5 | 8.7 | 0.00 | 0.00 | 0.00 | 39 | 1018.1 |
| 20260506191935 | 53 | 263 | 3.5 | 13.0 | 0.00 | 0.00 | 0.00 | 36 | 1018.1 |
| 20260506191435 | 53 | 304 | 2.6 | 7.8 | 0.00 | 0.00 | 0.00 | 40 | 1018.0 |
| 20260506190935 | 52 | 302 | 4.3 | 12.2 | 0.00 | 0.00 | 0.00 | 38 | 1018.0 |
| 20260506190435 | 53 | 303 | 2.6 | 8.7 | 0.00 | 0.00 | 0.00 | 38 | 1018.2 |
| 20260506185935 | 53 | 282 | 2.6 | 8.7 | 0.00 | 0.00 | 0.00 | 38 | 1018.2 |
| 20260506185435 | 53 | 250 | 2.6 | 9.6 | 0.00 | 0.00 | 0.00 | 35 | 1018.2 |
| 20260506184935 | 53 | 323 | 2.6 | 7.0 | 0.00 | 0.00 | 0.00 | 37 | 1018.3 |
| 20260506184435 | 53 | 304 | 2.6 | 8.7 | 0.00 | 0.00 | 0.00 | 38 | 1018.3 |
| 20260506183935 | 53 | 321 | 3.5 | 10.4 | 0.00 | 0.00 | 0.00 | 37 | 1018.3 |
| 20260506183435 | 53 | 305 | 3.5 | 10.4 | 0.00 | 0.00 | 0.00 | 41 | 1018.3 |
| 20260506182935 | 52 | 245 | 2.6 | 6.1 | 0.00 | 0.00 | 0.00 | 38 | 1018.5 |
| 20260506182435 | 52 | 288 | 3.5 | 11.3 | 0.00 | 0.00 | 0.00 | 41 | 1018.5 |
| 20260506181935 | 52 | 281 | 2.6 | 8.7 | 0.00 | 0.00 | 0.00 | 38 | 1018.5 |
| 20260506181435 | 52 | 318 | 1.7 | 6.1 | 0.00 | 0.00 | 0.00 | 40 | 1018.5 |
| 20260506180935 | 52 | 333 | 2.6 | 6.1 | 0.00 | 0.00 | 0.00 | 42 | 1018.5 |
| 20260506180435 | 52 | 300 | 2.6 | 8.7 | 0.00 | 0.00 | 0.00 | 39 | 1018.6 |
| 20260506175935 | 52 | 328 | 2.6 | 8.7 | 0.00 | 0.00 | 0.00 | 38 | 1018.5 |
| 20260506175435 | 52 | 333 | 2.6 | 7.0 | 0.00 | 0.00 | 0.00 | 38 | 1018.6 |
| 20260506174935 | 52 | 289 | 4.3 | 7.0 | 0.00 | 0.00 | 0.00 | 38 | 1018.6 |
| 20260506174435 | 52 | 292 | 4.3 | 12.2 | 0.00 | 0.00 | 0.00 | 40 | 1018.5 |
| 20260506173935 | 52 | 307 | 3.5 | 7.8 | 0.00 | 0.00 | 0.00 | 41 | 1018.6 |
| 20260506173435 | 52 | 290 | 3.5 | 10.4 | 0.00 | 0.00 | 0.00 | 40 | 1018.7 |
| 20260506172935 | 51 | 318 | 2.6 | 12.2 | 0.00 | 0.00 | 0.00 | 42 | 1018.8 |
| 20260506172435 | 51 | 310 | 2.6 | 7.0 | 0.00 | 0.00 | 0.00 | 40 | 1018.8 |
| 20260506171935 | 51 | 300 | 3.5 | 12.2 | 0.00 | 0.00 | 0.00 | 40 | 1018.8 |
| 20260506171435 | 51 | 301 | 2.6 | 6.1 | 0.00 | 0.00 | 0.00 | 40 | 1018.8 |
| 20260506170935 | 51 | 307 | 2.6 | 7.8 | 0.00 | 0.00 | 0.00 | 41 | 1018.9 |
| 20260506170435 | 51 | 314 | 2.6 | 7.0 | 0.00 | 0.00 | 0.00 | 42 | 1018.8 |
| 20260506165935 | 51 | 297 | 1.7 | 5.2 | 0.00 | 0.00 | 0.00 | 40 | 1018.8 |
| 20260506165435 | 51 | 307 | 1.7 | 4.3 | 0.00 | 0.00 | 0.00 | 41 | 1018.9 |
| 20260506164935 | 51 | 316 | 1.7 | 10.4 | 0.00 | 0.00 | 0.00 | 40 | 1018.9 |
| 20260506164435 | 51 | 325 | 2.6 | 7.0 | 0.00 | 0.00 | 0.00 | 38 | 1018.8 |
| 20260506163935 | 51 | 305 | 3.5 | 7.8 | 0.00 | 0.00 | 0.00 | 39 | 1018.8 |
| 20260506163435 | 51 | 294 | 2.6 | 7.8 | 0.00 | 0.00 | 0.00 | 41 | 1018.7 |
| 20260506162935 | 51 | 315 | 2.6 | 3.5 | 0.00 | 0.00 | 0.00 | 40 | 1018.7 |
| 20260506162435 | 50 | 291 | 4.3 | 7.0 | 0.00 | 0.00 | 0.00 | 43 | 1018.6 |
| 20260506161935 | 51 | 295 | 3.5 | 10.4 | 0.00 | 0.00 | 0.00 | 40 | 1018.7 |
| 20260506161435 | 52 | 305 | 3.5 | 7.0 | 0.00 | 0.00 | 0.00 | 40 | 1018.6 |
| 20260506160935 | 52 | 305 | 2.6 | 8.7 | 0.00 | 0.00 | 0.00 | 39 | 1018.6 |
| 20260506160435 | 52 | 280 | 0.9 | 6.1 | 0.00 | 0.00 | 0.00 | 43 | 1018.6 |
| 20260506155935 | 51 | 323 | 0.9 | 7.0 | 0.00 | 0.00 | 0.00 | 47 | 1018.6 |